TimeCDT,TemperatureF,Dew PointF,Humidity,Sea Level PressureIn,VisibilityMPH,Wind Direction,Wind SpeedMPH,Gust SpeedMPH,PrecipitationIn,Events,Conditions,WindDirDegrees,DateUTC
11:55 AM,91.4,65.1,42,29.94,10.0,ENE,11.5,-,N/A,,Unknown,60,2013-07-01 16:55:00
12:15 PM,92.7,62.6,37,29.93,10.0,NE,10.4,-,N/A,,Scattered Clouds,40,2013-07-01 17:15:00
12:35 PM,93.7,63.0,36,29.93,10.0,East,10.4,-,N/A,,Scattered Clouds,80,2013-07-01 17:35:00
12:55 PM,94.1,57.7,29,29.92,10.0,NNE,6.9,-,N/A,,Scattered Clouds,20,2013-07-01 17:55:00
1:15 PM,95.4,56.8,27,29.92,10.0,NE,10.4,-,N/A,,Clear,40,2013-07-01 18:15:00
1:35 PM,95.5,57.7,28,29.92,10.0,NNE,8.1,-,N/A,,Clear,30,2013-07-01 18:35:00
1:55 PM,96.1,58.5,28,29.91,10.0,NE,3.5,-,N/A,,Clear,40,2013-07-01 18:55:00
2:15 PM,96.1,57.7,28,29.91,10.0,Calm,Calm,-,N/A,,Clear,0,2013-07-01 19:15:00
2:35 PM,97.0,56.7,26,29.90,10.0,Calm,Calm,-,N/A,,Clear,0,2013-07-01 19:35:00
2:55 PM,97.5,55.9,25,29.90,10.0,NNE,5.8,-,N/A,,Mostly Cloudy,20,2013-07-01 19:55:00
3:15 PM,97.3,55.9,25,29.89,10.0,ENE,5.8,-,N/A,,Mostly Cloudy,60,2013-07-01 20:15:00
3:35 PM,98.6,55.9,24,29.88,10.0,NE,8.1,-,N/A,,Scattered Clouds,40,2013-07-01 20:35:00
3:55 PM,99.3,55.8,23,29.88,10.0,NNE,4.6,16.1,N/A,,Clear,20,2013-07-01 20:55:00
4:15 PM,98.1,54.9,23,29.88,10.0,NE,8.1,-,N/A,,Clear,50,2013-07-01 21:15:00
4:35 PM,98.1,54.7,23,29.87,10.0,Calm,Calm,-,N/A,,Clear,0,2013-07-01 21:35:00
4:55 PM,99.5,54.5,22,29.87,10.0,NE,3.5,-,N/A,,Clear,40,2013-07-01 21:55:00
5:15 PM,99.7,54.9,22,29.86,10.0,NNE,15.0,19.6,N/A,,Scattered Clouds,20,2013-07-01 22:15:00
5:35 PM,97.9,54.5,23,29.86,10.0,North,11.5,-,N/A,,Scattered Clouds,360,2013-07-01 22:35:00
5:55 PM,97.5,54.7,24,29.86,10.0,North,11.5,-,N/A,,Mostly Cloudy,10,2013-07-01 22:55:00
6:15 PM,98.2,54.5,23,29.86,10.0,North,12.7,18.4,N/A,,Overcast,360,2013-07-01 23:15:00
6:35 PM,97.9,54.1,23,29.87,10.0,North,11.5,-,N/A,,Overcast,360,2013-07-01 23:35:00
6:55 PM,96.3,54.9,25,29.87,10.0,NNW,9.2,-,N/A,,Mostly Cloudy,340,2013-07-01 23:55:00
7:15 PM,95.9,55.0,25,29.88,10.0,North,6.9,-,N/A,,Scattered Clouds,360,2013-07-02 00:15:00
7:35 PM,94.8,57.4,28,29.88,10.0,NNE,6.9,-,N/A,,Scattered Clouds,30,2013-07-02 00:35:00
7:55 PM,92.7,59.0,32,29.90,10.0,NE,8.1,-,N/A,,Scattered Clouds,40,2013-07-02 00:55:00
8:15 PM,90.7,61.5,38,29.91,10.0,Calm,Calm,-,N/A,,Mostly Cloudy,0,2013-07-02 01:15:00
8:35 PM,89.2,61.9,40,29.91,10.0,Calm,Calm,-,N/A,,Scattered Clouds,0,2013-07-02 01:35:00
8:55 PM,88.2,61.2,40,29.91,10.0,Calm,Calm,-,N/A,,Mostly Cloudy,0,2013-07-02 01:55:00
9:15 PM,87.3,62.6,44,29.92,10.0,Calm,Calm,-,N/A,,Mostly Cloudy,0,2013-07-02 02:15:00
9:35 PM,86.2,64.8,49,29.92,10.0,Calm,Calm,-,N/A,,Mostly Cloudy,0,2013-07-02 02:35:00
9:55 PM,84.2,65.7,54,29.93,10.0,Calm,Calm,-,N/A,,Scattered Clouds,0,2013-07-02 02:55:00
10:15 PM,84.0,66.0,55,29.94,10.0,Calm,Calm,-,N/A,,Scattered Clouds,0,2013-07-02 03:15:00
10:35 PM,83.8,60.1,44,29.95,10.0,North,8.1,-,N/A,,Scattered Clouds,360,2013-07-02 03:35:00
10:55 PM,82.6,58.8,44,29.95,10.0,Calm,Calm,-,N/A,,Scattered Clouds,0,2013-07-02 03:55:00
11:15 PM,82.9,59.0,44,29.96,10.0,Calm,Calm,-,N/A,,Mostly Cloudy,0,2013-07-02 04:15:00
11:35 PM,82.6,61.0,48,29.96,10.0,Calm,Calm,-,N/A,,Mostly Cloudy,0,2013-07-02 04:35:00
11:55 PM,82.0,64.8,56,29.97,10.0,Calm,Calm,-,N/A,,Scattered Clouds,0,2013-07-02 04:55:00